[[[{"header":{"parameterUnit":"kt","parameterCategory":2,"dx":1,"dy":1,"la1":30.253999710083008,"la2":30.299108505249023,"lo1":-89.0895004272461,"lo2":-89.04439544677734,"nx":28,"ny":28,"refTime":"2022-10-20T21:00:00:Z","depth":0,"parameterNumber":1,"parameterNumberName":"U-component_of_WINDS"},"data":[5.2579,5.2717,5.2726,5.2887,5.2923,5.3033,5.3075,5.313,5.3176,5.3307,5.3383,5.3406,5.3454,5.3546,5.3627,5.3635,5.3668,5.3708,5.371,5.3523,5.3497,5.3473,5.344,5.3716,5.3716,5.39,5.3902,5.3903,5.2432,5.2468,5.2558,5.2651,5.2726,5.2692,5.2762,5.2826,5.2926,5.2985,5.3062,5.3179,5.3271,5.3307,5.3397,5.3458,5.3446,5.3481,5.3475,5.3482,5.3284,5.3249,5.3489,5.3489,5.3489,5.3489,5.3489,5.3489,5.2166,5.225,5.2312,5.241,5.2459,5.2521,5.2602,5.2629,5.2716,5.2814,5.2809,5.2922,5.2981,5.3096,5.3137,5.3223,5.3185,5.3226,5.3236,5.3245,5.3253,5.2977,5.3239,5.3239,5.3238,5.3238,5.3237,0,5.1974,5.1976,5.2065,5.2155,5.2227,5.2298,5.2365,5.2415,5.2424,5.2496,5.26,5.2661,5.2782,5.2879,5.2967,5.3001,5.2971,5.2971,5.2999,5.3,5.2989,5.2991,5.2663,5.2963,5.2961,5.2959,5.2958,5.2957,5.1702,5.1802,5.1874,5.1934,5.1974,5.2073,5.2132,5.2134,5.2197,5.2279,5.2352,5.2452,5.2531,5.2696,5.2726,5.2816,5.2802,5.2914,5.2815,5.2812,5.2798,5.2791,5.2798,5.2933,5.2936,5.2938,5.2941,0,5.1547,5.1566,5.1723,5.1786,5.1804,5.1907,5.1959,5.2044,5.2062,5.218,5.2208,5.2237,5.2339,5.2352,5.2473,5.2475,5.2637,5.2624,5.2614,5.2611,5.271,5.2699,5.3039,5.3081,5.2799,5.2802,5.2804,0,5.1322,5.1453,5.1471,5.1563,5.1707,5.1706,5.1848,5.1878,5.1933,5.2026,5.1997,5.2085,5.2088,5.2177,5.2183,5.2318,5.2343,5.2351,5.235,5.2352,5.2351,5.2383,5.2368,5.2351,5.2349,5.2348,5.2346,0,5.1075,5.1242,5.139,5.1431,5.1512,5.1581,5.1618,5.1681,5.1741,5.182,5.1858,5.1952,5.2002,5.2073,5.2079,5.201,5.2247,5.2154,5.2256,5.2255,5.2306,5.2302,5.2602,5.2344,5.2344,5.2343,5.2343,0,5.0895,5.0979,5.1194,5.1259,5.1303,5.1402,5.1493,5.1581,5.1649,5.1659,5.1723,5.1705,5.1829,5.1734,5.1903,5.1812,5.1862,5.1883,5.1891,5.19,5.1794,5.1956,5.2243,5.2272,5.191,5.1907,5.1903,0,5.0605,5.0828,5.083,5.1034,5.1139,5.1098,5.1207,5.127,5.1293,5.1383,5.1408,5.1512,5.1445,5.1479,5.1562,5.159,5.171,5.1575,5.1699,5.1703,5.1678,5.1943,5.1981,5.2179,5.1858,5.1863,5.1866,0,5.0383,5.0485,5.0522,5.0567,5.0653,5.0742,5.0869,5.0973,5.1032,5.1109,5.1212,5.1361,5.1314,5.1373,5.1369,5.1454,5.1629,5.1394,5.1396,5.1432,5.1838,5.1872,5.1906,5.1607,5.1612,5.1617,5.183,0,5.0098,5.0215,5.0317,5.0424,5.0495,5.0627,5.0644,5.0716,5.0705,5.0727,5.0882,5.0941,5.1047,5.1091,5.1083,5.1275,5.1244,5.1196,5.1104,5.1279,5.1349,5.1378,5.0997,5.0994,5.0992,5.099,0,0,4.9813,4.9982,4.9983,5.0108,5.0168,5.0126,5.0264,5.0318,5.0429,5.047,5.0419,5.0638,5.0689,5.0875,5.0931,5.0976,5.101,5.095,5.1196,5.1219,5.1241,5.1315,5.1346,5.0987,5.0986,5.0985,5.0984,0,4.9713,4.977,4.9908,4.9964,5.0048,5.0066,5.0099,5.0174,5.0195,5.0351,5.0313,5.0409,5.0587,5.0643,5.0695,5.0929,5.0894,5.096,5.1078,5.1174,5.12,5.1223,5.1301,5.133,5.0979,5.0979,5.098,0,4.9494,4.9551,4.9621,4.9761,4.9816,4.9927,4.9834,4.9958,5.0039,4.9988,5.0143,5.0178,5.0257,5.0434,5.0514,5.047,5.0786,5.0692,5.0706,5.0715,5.0809,5.084,5.0867,5.0502,5.05,5.0499,0,0,4.9405,4.9516,4.9578,4.9741,4.9778,4.9808,4.9871,4.9867,4.994,4.997,5.0015,5.0086,5.0188,5.0256,5.0354,5.0547,5.0561,5.0632,5.0655,5.0673,5.0692,5.079,5.0821,5.0492,5.0492,5.0492,0,0,4.9362,4.9441,4.9418,4.961,4.9681,4.9753,4.9851,4.9824,4.9915,4.9902,4.9901,4.992,5.0086,5.0124,5.0033,5.0321,5.023,5.0252,5.029,5.0319,5.0341,5.0328,4.9946,0,0,0,0,0,4.927,4.9431,4.941,4.9445,4.9623,4.9765,4.9788,4.9791,4.9725,4.9802,4.9835,4.9796,5.0073,4.9993,5.0027,5.0128,5.0407,5.0422,5.0437,5.0532,5.0562,5.0587,0,0,0,0,0,0,4.9284,4.9327,4.9405,4.9484,4.9524,4.9759,4.9648,4.9653,4.9717,4.9707,4.979,4.9798,4.9804,4.9976,5.0007,5.0102,4.9936,5.0413,5.0426,5.0437,5.0542,5.0566,5.0587,0,0,0,0,0,4.9295,4.933,4.9615,4.9482,4.9517,4.956,4.9642,4.9646,4.9695,4.9748,4.9755,4.9692,4.9806,4.9832,4.9994,5.0088,4.9915,4.9926,5.0421,5.0432,5.0441,5.0554,0,0,0,0,0,0,4.9303,4.9333,4.9622,4.9632,4.9422,4.9547,4.9566,4.9639,4.9732,4.974,4.9649,4.964,4.981,4.983,4.985,5.0083,4.9898,4.9909,4.9916,5.0429,5.0437,5.0444,0,0,0,0,0,0,4.9315,4.9343,4.9627,4.9552,4.9554,4.9534,4.9552,4.9691,4.9733,4.9627,4.9622,4.9644,4.9779,4.9829,4.9844,5.0061,4.9884,4.9895,4.9903,4.9908,5.0436,5.0442,0,0,0,0,0,0,4.9326,4.9351,4.9549,4.9551,4.9552,4.9671,4.9657,4.9839,4.967,4.9624,4.9654,4.9647,4.978,4.9795,4.9841,5.0051,5.0059,4.9885,4.9892,4.9898,4.9901,0,0,0,0,0,0,0,4.9336,4.9175,4.9559,4.955,4.9551,4.9731,4.9733,4.9736,4.9668,4.9662,4.9656,4.965,4.9821,4.9833,4.9845,5.0043,0,0,4.9884,4.9889,0,0,0,0,0,0,0,0,4.9164,4.9172,4.9559,4.9562,4.9564,4.9731,4.9733,4.9736,4.9667,4.9662,4.9657,4.9653,4.9824,4.9834,4.9844,0,0,0,0,0,0,0,0,0,0,0,0,0,0,0,4.956,4.9562,0,4.9731,4.9733,4.9735,4.9666,4.9662,4.9658,4.9655,4.9827,4.9835,4.9843,0,0,0,0,0,0,0,0,0,0,0,0,0,0,0,0,0,0,0,0,0,0,0,0,0,0,0,0,0,0,0,0,0,0,0,0,0,0,0,0,0,0,0,0,0,0,0,0,0,0,0,0,0,0,0,0,0,0,0,0,0,0,0,0,0,0,0,0,0]}],[{"header":{"parameterUnit":"kt","parameterCategory":2,"dx":1,"dy":1,"la1":30.253999710083008,"la2":30.299108505249023,"lo1":-89.0895004272461,"lo2":-89.04439544677734,"nx":28,"ny":28,"refTime":"2022-10-20T21:00:00:Z","depth":0,"parameterNumber":2,"parameterNumberName":"V-component_of_WINDS"},"data":[-0.8095,-0.8126,-0.8171,-0.8227,-0.8276,-0.8322,-0.8352,-0.8397,-0.8443,-0.8502,-0.8544,-0.8591,-0.8654,-0.8715,-0.8762,-0.8782,-0.8799,-0.8778,-0.8805,-0.8857,-0.8867,-0.8877,-0.8873,-0.8781,-0.8781,-0.8745,-0.8744,-0.8744,-0.8133,-0.8182,-0.8225,-0.8296,-0.8333,-0.838,-0.844,-0.8467,-0.8506,-0.8563,-0.8607,-0.8662,-0.8711,-0.8782,-0.8836,-0.8852,-0.8877,-0.8863,-0.8863,-0.8872,-0.893,-0.8925,-0.8843,-0.8843,-0.8843,-0.8843,-0.8843,-0.8843,-0.8214,-0.823,-0.8299,-0.8346,-0.8394,-0.8441,-0.8464,-0.8522,-0.8563,-0.8625,-0.867,-0.8714,-0.8779,-0.8865,-0.8904,-0.8941,-0.8963,-0.8962,-0.8962,-0.896,-0.8953,-0.9001,-0.8952,-0.8952,-0.8952,-0.8953,-0.8953,0,-0.8287,-0.8323,-0.8366,-0.8423,-0.8459,-0.8507,-0.8558,-0.8573,-0.8663,-0.8693,-0.874,-0.8775,-0.8842,-0.8891,-0.8951,-0.8993,-0.9043,-0.9053,-0.9053,-0.9032,-0.9006,-0.9021,-0.9113,-0.9053,-0.9054,-0.9055,-0.9056,-0.9056,-0.8372,-0.8385,-0.8478,-0.8503,-0.8542,-0.8579,-0.861,-0.8689,-0.8719,-0.8792,-0.8802,-0.8852,-0.8896,-0.8963,-0.9029,-0.9079,-0.9104,-0.9076,-0.9111,-0.9092,-0.9104,-0.9102,-0.9105,-0.9067,-0.9066,-0.9065,-0.9064,0,-0.8416,-0.8488,-0.8523,-0.8613,-0.8637,-0.8646,-0.8723,-0.8742,-0.8796,-0.8829,-0.8841,-0.8925,-0.8969,-0.904,-0.9103,-0.9139,-0.9156,-0.9179,-0.9135,-0.9144,-0.9127,-0.9127,-0.9058,-0.9054,-0.915,-0.9149,-0.9148,0,-0.8517,-0.853,-0.8638,-0.8654,-0.8672,-0.8751,-0.8767,-0.8814,-0.8871,-0.8898,-0.8967,-0.8991,-0.9077,-0.9111,-0.9163,-0.919,-0.9202,-0.9231,-0.9244,-0.9224,-0.922,-0.924,-0.9244,-0.9274,-0.9274,-0.9274,-0.9274,0,-0.8577,-0.865,-0.8677,-0.8705,-0.8802,-0.8812,-0.8853,-0.8916,-0.8946,-0.8995,-0.9015,-0.9066,-0.9093,-0.9132,-0.9198,-0.9219,-0.9232,-0.9275,-0.9262,-0.926,-0.926,-0.9258,-0.9181,-0.9275,-0.9275,-0.9275,-0.9275,0,-0.8669,-0.8719,-0.8746,-0.8829,-0.8844,-0.8861,-0.8918,-0.8949,-0.901,-0.9045,-0.9084,-0.9137,-0.9166,-0.9204,-0.9244,-0.9253,-0.9277,-0.9307,-0.9307,-0.9313,-0.9353,-0.93,-0.9219,-0.9213,-0.932,-0.9321,-0.9321,0,-0.872,-0.8766,-0.8834,-0.8858,-0.8889,-0.8966,-0.8986,-0.9038,-0.9086,-0.9119,-0.9171,-0.9208,-0.9251,-0.9271,-0.9283,-0.9337,-0.9326,-0.9341,-0.9387,-0.9388,-0.9369,-0.9296,-0.9266,-0.9229,-0.9327,-0.9326,-0.9326,0,-0.8767,-0.8885,-0.8884,-0.8919,-0.9001,-0.9027,-0.905,-0.9104,-0.9122,-0.9172,-0.9193,-0.9245,-0.9281,-0.9314,-0.9362,-0.937,-0.9336,-0.9405,-0.9408,-0.9391,-0.9335,-0.9307,-0.9301,-0.9367,-0.9366,-0.9366,-0.933,0,-0.8891,-0.8923,-0.8924,-0.8998,-0.9029,-0.9047,-0.9122,-0.9145,-0.919,-0.9239,-0.9271,-0.933,-0.9383,-0.9393,-0.9436,-0.943,-0.9442,-0.9478,-0.9518,-0.947,-0.946,-0.9456,-0.9527,-0.9529,-0.953,-0.9532,0,0,-0.8921,-0.8968,-0.904,-0.9065,-0.9096,-0.9174,-0.9187,-0.9225,-0.93,-0.932,-0.9344,-0.9425,-0.9471,-0.9501,-0.9492,-0.9512,-0.9518,-0.9531,-0.9492,-0.9488,-0.9483,-0.9472,-0.9466,-0.9534,-0.9535,-0.9535,-0.9535,0,-0.8981,-0.9029,-0.9041,-0.9085,-0.9152,-0.9204,-0.9207,-0.9286,-0.9318,-0.9349,-0.9411,-0.9439,-0.95,-0.9542,-0.957,-0.9531,-0.9575,-0.9541,-0.9495,-0.9504,-0.9497,-0.9491,-0.9478,-0.9472,-0.9539,-0.9539,-0.9538,0,-0.9042,-0.9101,-0.9115,-0.9188,-0.9232,-0.9261,-0.9323,-0.935,-0.9373,-0.9454,-0.9483,-0.9525,-0.9586,-0.9604,-0.9615,-0.9637,-0.9623,-0.9639,-0.9633,-0.9635,-0.9647,-0.9639,-0.9632,-0.9725,-0.9725,-0.9726,0,0,-0.9083,-0.9113,-0.92,-0.9206,-0.923,-0.9307,-0.9329,-0.9375,-0.9429,-0.945,-0.9505,-0.9555,-0.9592,-0.9614,-0.9652,-0.9661,-0.968,-0.9659,-0.9651,-0.9643,-0.9641,-0.9651,-0.9643,-0.9727,-0.9727,-0.9727,0,0,-0.9103,-0.9205,-0.924,-0.9257,-0.9307,-0.9392,-0.9392,-0.9437,-0.9479,-0.9485,-0.9563,-0.9579,-0.9597,-0.9635,-0.9645,-0.9668,-0.9707,-0.9706,-0.9642,-0.9632,-0.9623,-0.9613,-0.9715,0,0,0,0,0,-0.9203,-0.9193,-0.9224,-0.9238,-0.9329,-0.9375,-0.9387,-0.9452,-0.9479,-0.9478,-0.9531,-0.9577,-0.9657,-0.9668,-0.9679,-0.9668,-0.9744,-0.9741,-0.9738,-0.9658,-0.9647,-0.9637,0,0,0,0,0,0,-0.9209,-0.9226,-0.9224,-0.9307,-0.9329,-0.9376,-0.9436,-0.9453,-0.948,-0.9489,-0.9566,-0.958,-0.9635,-0.9666,-0.9676,-0.9663,-0.9712,-0.9743,-0.974,-0.9738,-0.9654,-0.9645,-0.9637,0,0,0,0,0,-0.9214,-0.9228,-0.9357,-0.9308,-0.9327,-0.9411,-0.9437,-0.9452,-0.9474,-0.9556,-0.9571,-0.952,-0.9633,-0.9646,-0.9672,-0.9657,-0.9706,-0.9709,-0.9741,-0.9739,-0.9737,-0.965,0,0,0,0,0,0,-0.9218,-0.9242,-0.9362,-0.937,-0.9317,-0.9409,-0.9426,-0.945,-0.954,-0.9555,-0.9514,-0.952,-0.9631,-0.9642,-0.9651,-0.9651,-0.97,-0.9704,-0.9706,-0.974,-0.9738,-0.9737,0,0,0,0,0,0,-0.9235,-0.9248,-0.9366,-0.9374,-0.9383,-0.9408,-0.9423,-0.9454,-0.954,-0.9494,-0.9501,-0.9515,-0.9617,-0.9638,-0.9646,-0.9692,-0.9697,-0.97,-0.9702,-0.9704,-0.9738,-0.9737,0,0,0,0,0,0,-0.9241,-0.9253,-0.9372,-0.9379,-0.9388,-0.9482,-0.9436,-0.9525,-0.9548,-0.9488,-0.9551,-0.9553,-0.9612,-0.9621,-0.9642,-0.9684,-0.969,-0.9697,-0.9699,-0.97,-0.9702,0,0,0,0,0,0,0,-0.9247,-0.9156,-0.9315,-0.9384,-0.9391,-0.9444,-0.9446,-0.9448,-0.9548,-0.9549,-0.9551,-0.9552,-0.9678,-0.9681,-0.9685,-0.9678,0,0,-0.9696,-0.9698,0,0,0,0,0,0,0,0,-0.9153,-0.9156,-0.9315,-0.9317,-0.9318,-0.9444,-0.9446,-0.9448,-0.9548,-0.9549,-0.9551,-0.9552,-0.9679,-0.9681,-0.9684,0,0,0,0,0,0,0,0,0,0,0,0,0,0,0,-0.9315,-0.9317,0,-0.9445,-0.9446,-0.9448,-0.9548,-0.9549,-0.955,-0.9551,-0.9679,-0.9682,-0.9684,0,0,0,0,0,0,0,0,0,0,0,0,0,0,0,0,0,0,0,0,0,0,0,0,0,0,0,0,0,0,0,0,0,0,0,0,0,0,0,0,0,0,0,0,0,0,0,0,0,0,0,0,0,0,0,0,0,0,0,0,0,0,0,0,0,0,0,0,0]}]]]